TimeCST,TemperatureF,Dew PointF,Humidity,Sea Level PressureIn,VisibilityMPH,Wind Direction,Wind SpeedMPH,Gust SpeedMPH,PrecipitationIn,Events,Conditions,WindDirDegrees,DateUTC
12:15 AM,5.0,1.4,85,30.06,5.0,WSW,4.6,-,N/A,,Scattered Clouds,250,2012-12-29 06:15:00
12:35 AM,3.2,-0.4,85,30.06,1.2,WSW,5.8,-,N/A,,Unknown,240,2012-12-29 06:35:00
12:55 AM,5.0,3.2,92,30.06,7.0,WSW,4.6,-,N/A,,Mostly Cloudy,240,2012-12-29 06:55:00
1:15 AM,8.6,5.0,85,30.06,7.0,SW,4.6,-,N/A,,Overcast,230,2012-12-29 07:15:00
1:35 AM,8.6,3.2,79,30.05,10.0,WSW,6.9,-,N/A,,Scattered Clouds,240,2012-12-29 07:35:00
1:55 AM,5.0,3.2,92,30.05,10.0,SW,6.9,-,N/A,,Clear,230,2012-12-29 07:55:00
2:15 AM,5.0,1.4,85,30.06,7.0,WSW,5.8,-,N/A,,Scattered Clouds,240,2012-12-29 08:15:00
2:35 AM,3.2,-0.4,85,30.06,10.0,WSW,5.8,-,N/A,,Scattered Clouds,250,2012-12-29 08:35:00
2:55 AM,1.4,-2.2,85,30.06,10.0,WSW,5.8,-,N/A,,Scattered Clouds,250,2012-12-29 08:55:00
3:15 AM,1.4,-2.2,85,30.06,10.0,WSW,5.8,-,N/A,,Mostly Cloudy,250,2012-12-29 09:15:00
3:35 AM,3.2,-0.4,85,30.06,10.0,WSW,3.5,-,N/A,,Overcast,240,2012-12-29 09:35:00
3:55 AM,3.2,-0.4,85,30.06,10.0,West,4.6,-,N/A,,Overcast,260,2012-12-29 09:55:00
4:15 AM,5.0,1.4,85,30.06,10.0,West,4.6,-,N/A,,Overcast,270,2012-12-29 10:15:00
4:35 AM,5.0,1.4,85,30.05,10.0,West,6.9,-,N/A,,Overcast,280,2012-12-29 10:35:00
4:55 AM,5.0,1.4,85,30.05,10.0,West,6.9,-,N/A,,Overcast,280,2012-12-29 10:55:00
5:15 AM,5.0,1.4,85,30.05,10.0,West,8.1,-,N/A,,Overcast,280,2012-12-29 11:15:00
5:35 AM,3.2,-0.4,85,30.05,10.0,West,5.8,-,N/A,,Overcast,280,2012-12-29 11:35:00
5:55 AM,1.4,-2.2,85,30.05,10.0,WNW,6.9,-,N/A,,Scattered Clouds,290,2012-12-29 11:55:00
6:15 AM,-0.4,-5.8,78,30.05,10.0,West,5.8,-,N/A,,Clear,280,2012-12-29 12:15:00
6:35 AM,-0.4,-5.8,78,30.06,10.0,WNW,6.9,-,N/A,,Clear,290,2012-12-29 12:35:00
6:55 AM,-4.0,-7.6,85,30.06,10.0,West,4.6,-,N/A,,Clear,260,2012-12-29 12:55:00
7:15 AM,-5.8,-9.4,84,30.06,10.0,West,5.8,-,N/A,,Clear,260,2012-12-29 13:15:00
7:35 AM,-4.0,-7.6,85,30.07,10.0,West,5.8,-,N/A,,Mostly Cloudy,260,2012-12-29 13:35:00
7:55 AM,-4.0,-7.6,85,30.07,10.0,West,6.9,-,N/A,,Mostly Cloudy,270,2012-12-29 13:55:00
8:15 AM,-4.0,-7.6,85,30.08,10.0,West,5.8,-,N/A,,Mostly Cloudy,280,2012-12-29 14:15:00
8:35 AM,-0.4,-4.0,85,30.08,10.0,West,6.9,-,N/A,,Overcast,280,2012-12-29 14:35:00
8:55 AM,1.4,-2.2,85,30.08,10.0,WNW,8.1,-,N/A,,Overcast,290,2012-12-29 14:55:00
9:15 AM,3.2,-0.4,85,30.09,10.0,WNW,6.9,-,N/A,,Overcast,290,2012-12-29 15:15:00
9:35 AM,5.0,1.4,85,30.10,10.0,West,8.1,-,N/A,,Overcast,280,2012-12-29 15:35:00
9:55 AM,5.0,1.4,85,30.10,10.0,West,10.4,-,N/A,,Overcast,270,2012-12-29 15:55:00
10:15 AM,3.2,-0.4,85,30.10,10.0,West,9.2,-,N/A,,Overcast,280,2012-12-29 16:15:00
10:35 AM,3.2,-0.4,85,30.10,5.0,West,6.9,-,N/A,,Overcast,270,2012-12-29 16:35:00
10:55 AM,1.4,-2.2,85,30.09,10.0,West,8.1,-,N/A,,Mostly Cloudy,280,2012-12-29 16:55:00
11:15 AM,1.4,-2.2,85,30.10,10.0,West,6.9,-,N/A,,Clear,280,2012-12-29 17:15:00
11:35 AM,1.4,-2.2,85,30.09,10.0,West,6.9,-,N/A,,Scattered Clouds,270,2012-12-29 17:35:00
11:55 AM,1.4,-2.2,85,30.09,10.0,West,8.1,-,N/A,,Overcast,270,2012-12-29 17:55:00
12:15 PM,3.2,-0.4,85,30.08,5.0,West,6.9,-,N/A,,Overcast,270,2012-12-29 18:15:00
12:35 PM,3.2,-0.4,85,30.09,2.0,West,8.1,-,N/A,,Overcast,270,2012-12-29 18:35:00
12:55 PM,3.2,-0.4,85,30.08,4.0,West,9.2,-,N/A,,Overcast,280,2012-12-29 18:55:00
1:15 PM,3.2,-0.4,85,30.08,3.0,West,8.1,-,N/A,,Overcast,270,2012-12-29 19:15:00
1:35 PM,5.0,1.4,85,30.08,4.0,WNW,8.1,-,N/A,,Overcast,290,2012-12-29 19:35:00
1:55 PM,5.0,-0.4,78,30.08,10.0,WNW,8.1,-,N/A,,Overcast,290,2012-12-29 19:55:00
2:15 PM,5.0,-0.4,78,30.07,10.0,West,5.8,-,N/A,,Unknown,280,2012-12-29 20:15:00
2:35 PM,3.2,-0.4,85,30.08,10.0,WNW,5.8,-,N/A,,Clear,290,2012-12-29 20:35:00
2:55 PM,3.2,-0.4,85,30.08,10.0,West,5.8,-,N/A,,Unknown,270,2012-12-29 20:55:00
3:15 PM,3.2,-2.2,78,30.08,10.0,WSW,4.6,-,N/A,,Clear,250,2012-12-29 21:15:00
3:35 PM,3.2,-2.2,78,30.09,10.0,WSW,5.8,-,N/A,,Clear,250,2012-12-29 21:35:00
4:15 PM,1.4,-4.0,78,30.10,10.0,West,6.9,-,N/A,,Clear,260,2012-12-29 22:15:00
4:35 PM,1.4,-4.0,78,30.10,10.0,West,6.9,-,N/A,,Clear,260,2012-12-29 22:35:00
4:55 PM,-0.4,-4.0,85,30.10,10.0,West,6.9,-,N/A,,Clear,260,2012-12-29 22:55:00
5:15 PM,-0.4,-5.8,78,30.11,10.0,West,8.1,-,N/A,,Clear,270,2012-12-29 23:15:00
5:35 PM,-2.2,-5.8,85,30.11,10.0,West,5.8,-,N/A,,Clear,260,2012-12-29 23:35:00
6:15 PM,-4.0,-7.6,85,30.11,10.0,Calm,Calm,-,N/A,,Clear,0,2012-12-30 00:15:00
6:35 PM,-4.0,-7.6,85,30.11,10.0,West,4.6,-,N/A,,Clear,260,2012-12-30 00:35:00
6:55 PM,-4.0,-7.6,85,30.11,10.0,West,5.8,-,N/A,,Clear,260,2012-12-30 00:55:00
7:15 PM,-4.0,-7.6,85,30.12,10.0,WSW,4.6,-,N/A,,Clear,240,2012-12-30 01:15:00
7:35 PM,-4.0,-7.6,85,30.12,10.0,Calm,Calm,-,N/A,,Clear,0,2012-12-30 01:35:00
7:55 PM,-4.0,-7.6,85,30.12,10.0,Calm,Calm,-,N/A,,Clear,0,2012-12-30 01:55:00
8:15 PM,-4.0,-7.6,85,30.11,10.0,Calm,Calm,-,N/A,,Clear,0,2012-12-30 02:15:00
8:35 PM,-4.0,-7.6,85,30.11,10.0,SW,3.5,-,N/A,,Clear,220,2012-12-30 02:35:00
8:55 PM,-4.0,-9.4,78,30.11,10.0,SW,4.6,-,N/A,,Clear,230,2012-12-30 02:55:00
9:15 PM,-2.2,-5.8,85,30.11,10.0,SW,6.9,-,N/A,,Clear,220,2012-12-30 03:15:00
9:35 PM,-5.8,-9.4,84,30.11,10.0,SSW,4.6,-,N/A,,Clear,200,2012-12-30 03:35:00
9:55 PM,-4.0,-7.6,85,30.10,10.0,South,6.9,-,N/A,,Scattered Clouds,170,2012-12-30 03:55:00
10:15 PM,-0.4,-4.0,85,30.10,10.0,Calm,Calm,-,N/A,,Overcast,0,2012-12-30 04:15:00
10:35 PM,1.4,-4.0,78,30.11,10.0,Calm,Calm,-,N/A,,Overcast,0,2012-12-30 04:35:00
10:55 PM,3.2,-0.4,85,30.12,10.0,Calm,Calm,-,N/A,,Overcast,0,2012-12-30 04:55:00
11:15 PM,3.2,-0.4,85,30.12,10.0,SSE,4.6,-,N/A,,Overcast,150,2012-12-30 05:15:00
11:35 PM,3.2,-0.4,85,30.12,10.0,SE,3.5,-,N/A,,Overcast,140,2012-12-30 05:35:00
11:55 PM,3.2,-0.4,85,30.11,10.0,SSE,5.8,-,N/A,,Overcast,160,2012-12-30 05:55:00